Showing default

QIANFAN-48, 62249

Orbit data source: Space-Track

QIANFAN-48, 62249 is a Chinese payload satellite in LEO that was launched on Thu, 05 Dec 2024 UTC via a CHANG ZHENG 6A launch vehicle from the Taiyaun Space Center, China (TSC). Payload-class satellites include a variety of spacecraft equipped with specific instruments for various scientific and technological missions. These include communications satellites like Starlink; space stations such as the ISS; scientific satellites like the Hubble; Earth observation satellites from companies like Planet Labs, Umbra, and HawkEye 360; GPS; miniature CubeSats for education and research; and military/defense satellites.

Loading next visibility...
Identifier
62249, 2024-232N
Orbit
LEO
Country
Flag of CNCN / PRC
Related business
Manufacturer
SECM
Mission
Operational Commercial Communications
Bus & Motor
QIANFAN, Unknown motor
Mass
267 kg wet, ~267 kg dry
Launch date (UTC)
2024-12-05 (11 months ago)
Launch vehicle
CHANG ZHENG 6A
Launch site
Taiyaun Space Center, China (TSC)
Object type
Payload
Rocket body
Debris
Shape & HBR
Box + 1 Pan, 5.0 m
Radar Cross Section
13.200 m², Large (>1 m²)

Expand to show TLE details & history
Last TLE update: 8 hours ago

TLE from 8 hours ago
0 QIANFAN-48
1 62249U 24232N   25308.78346479  .00000179  00000-0  25891-3 0  9997
2 62249  89.0045  45.0441 0015405 313.0476  46.9384 13.50981957 94126
Epoch: 2025-11-04T18:48Z
TLE epoch observation values (Epoch: 2025-11-04T18:48:11.357Z)
Latitude
-0.00007°
Longitude
78.73125°
Altitude
1,063.776 km
Speed
7.324 km/s
True Right ascension
03h 00m 10s
True Declination
0° 00' 00"
Sunlit
Object was in full shadow at epoch
Visualization orbit readout
Latitude
Unknown
Longitude
Unknown
Altitude
Unknown
Speed
Unknown
Apparent Right ascension
Unknown
Apparent Declination
Unknown
Sunlit
N/A
Visualization observer readout
Local Sidereal Time
23:04:58
Azimuth
Unknown
Elevation
Unknown
Doppler factor
Unknown
Orbital elements
Apogee altitude
1,077.166 km
Perigee altitude
1,054.232 km
Semi-major axis
7,443.836 km
Eccentricity
0.00154
Inclination
89.0045°
RAAN
45.0441°
Arg. of periapsis
313.0476°
True anomaly
47.06754°
Mean anomaly
46.9384°
Eccentric anomaly
47.00296°
Mean motion
3.37947 °/min
Orbital period
106.53 mins
BSTAR
0.00025891
Loading maneuver chart data...
Computing Atmospheric mass density...
Loading historical data...
Loading historical data...
Loading historical data...
Loading historical data...
Loading historical data...
Loading historical data...
Loading historical data...

Documentation

Showing up to 5 results
|